• Join FlightAware (Why Join?)
  • Login
  • US Flag GB Flag 
04:46 EDT


 

Airport Tracker/Info


-or-


 

Live Flight TrackerFlight Track Log ✈ SKW6345 ✈ 06-May-2013 ✈ KDEN - KPHX

Flight Track Log - Related Links

Times and Time Zones

All times are in EDT time to prevent confusion due to time zone crossing. See the SKW6345 flight status page for this flight to view local times or setup timezone preferences in your user account.

Time Position Orientation Groundspeed Altitude Reporting Facility
EDT Latitude Longitude Course Direction KTS MPH feet Rate Location/Type
11:35 39.8400 -104.7492 233° Southwest 196 226 6,200  Level Denver Center
11:36 39.8192 -104.8353 253° West 242 278 8,000 1,980 Climbing Denver Center
11:37 39.6766 -104.3741 205° Southwest  Level FlightAware Approximate
11:37 39.7492 -104.8747 203° Southwest 284 327 10,400  Level Denver Center
11:38 39.5719 -104.4461 210° Southwest  Level FlightAware Approximate
11:39 39.4669 -104.5164 218° Southwest  Level FlightAware Approximate
11:39 39.6167 -104.9167 194° South 331 381 13,900  Level Denver TRACON
11:40 39.3813 -104.6202 233° Southwest  Level FlightAware Approximate
11:40 39.4911 -104.9544 193° South 344 396 17,100  Level Denver Center
11:41 39.3775 -104.9892 193° South 343 395 19,500 2,040 Climbing Denver Center
11:43 39.2600 -105.1445 226° Southwest  Level Estimated
11:43 39.1742 -105.0508 226° Southwest 361 415 23,500  Level Denver Center
11:45 39.0637 -105.2004 201° Southwest  Level Estimated
11:45 38.9797 -105.1664 201° Southwest 372 428 26,800  Level Denver Center
11:47 38.8429 -105.2476 205° Southwest  Level FlightAware Approximate
11:47 38.7858 -105.2894 205° Southwest 388 447 29,300  Level Denver Center
11:48 38.6861 -105.3533 207° Southwest 396 456 30,200 1,080 Climbing Denver Center
11:49 38.5842 -105.4167 206° Southwest 402 463 31,600 1,260 Climbing Denver Center
11:50 38.4839 -105.4808 207° Southwest 400 460 32,900 1,380 Climbing Denver Center
11:51 38.3689 -105.5553 207° Southwest 393 452 34,500 1,140 Climbing Denver Center
11:52 38.2803 -105.6092 206° Southwest 386 444 35,300 780 Climbing Denver Center
11:53 38.1725 -105.6769 206° Southwest 386 444 36,200 720 Climbing Denver Center
11:55 38.0789 -105.7347 206° Southwest 389 448 36,800 540 Climbing Denver Center
11:57 37.9064 -105.9122 219° Southwest 386 444 38,000 360 Climbing Denver Center
11:58 37.8053 -106.0386 225° Southwest 399 459 38,000  Level Denver Center
11:59 37.7278 -106.1381 225° Southwest 412 474 38,000  Level Denver Center
12:01 37.5846 -106.3033 225° Southwest  Level FlightAware Approximate
12:02 37.4839 -106.4422 224° Southwest 443 510 38,000  Level Albuquerque Center
12:02 37.4592 -106.4761 227° Southwest 410 472 38,000  Level Denver Center
12:04 37.3142 -106.6528 224° Southwest 411 473 38,000  Level Albuquerque Center
12:05 37.1992 -106.7981 225° Southwest 412 474 38,000  Level Denver Center
12:06 37.1233 -106.8958 226° Southwest 410 472 38,000  Level Denver Center
12:08 36.9928 -107.0358 224° Southwest  Level FlightAware Approximate
12:08 36.9797 -107.0733 225° Southwest 412 474 38,000  Level Albuquerque Center
12:09 36.9014 -107.1689 224° Southwest 411 473 38,000  Level Albuquerque Center
12:10 36.8108 -107.2806 225° Southwest 410 472 38,000  Level Albuquerque Center
12:11 36.7325 -107.3769 225° Southwest 411 473 38,000  Level Albuquerque Center
12:11 36.6931 -107.4231 223° Southwest 412 474 38,000  Level Denver Center
12:13 36.6142 -107.5186 224° Southwest 412 474 38,000  Level Denver Center
12:14 36.5228 -107.6300 224° Southwest 413 475 38,000  Level Denver Center
12:15 36.4431 -107.7258 224° Southwest 415 478 38,000  Level Denver Center
12:16 36.2978 -107.9017 224° Southwest 414 476 38,000  Level Albuquerque Center
12:17 36.2719 -107.9331 224° Southwest 413 475 38,000  Level Denver Center
12:18 36.1917 -108.0283 224° Southwest 415 478 38,000  Level Denver Center
12:19 36.0469 -108.2064 225° Southwest 415 478 38,000 -60 Level Albuquerque Center
12:22 35.8497 -108.4544 226° Southwest 421 484 37,900 -180 Descending Denver Center
12:22 35.7961 -108.5219 226° Southwest 424 488 37,500 -960 Descending Albuquerque Center
12:24 35.6989 -108.6436 225° Southwest 437 503 36,300 -300 Descending Albuquerque Center
12:27 35.5696 -108.7874 225° Southwest  Level FlightAware Approximate
12:28 35.3572 -109.0681 225° Southwest 435 501 36,000  Level Albuquerque Center
12:30 35.2091 -109.2459 224° Southwest  Level FlightAware Approximate
12:31 35.0850 -109.4028 246° West 430 495 36,000  Level Albuquerque Center
12:33 34.9676 -109.5948 233° Southwest  Level Estimated
12:34 34.8319 -109.7061 237° Southwest 420 483 36,000  Level Albuquerque Center
12:36 34.7050 -109.9492 238° Southwest 413 475 36,000  Level Albuquerque Center
12:37 34.6721 -109.9246 246° West  Level FlightAware Approximate
12:37 34.6536 -110.0683 242° Southwest 413 475 36,000  Level Albuquerque Center
12:38 34.5972 -110.2089 244° Southwest 415 478 35,900 -1,560 Descending Albuquerque Center
12:39 34.5464 -110.3214 241° Southwest 403 464 32,800 -2,880 Descending Albuquerque Center
12:40 34.5036 -110.3435 237° Southwest  Level Estimated
12:40 34.4897 -110.4422 240° Southwest 391 450 30,000  Level Albuquerque Center
12:41 34.4506 -110.5528 247° West 367 422 30,000 -1,020 Level Albuquerque Center
12:43 34.3777 -110.7199 242° Southwest  Level FlightAware Approximate
12:44 34.2906 -110.8794 239° Southwest 359 413 25,900  Level Albuquerque Center
12:45 34.2281 -110.9589 226° Southwest 336 387 24,000 -1,860 Descending Albuquerque Center
12:46 34.1664 -111.0397 227° Southwest 328 377 22,100 -1,860 Descending Albuquerque Center
12:47 34.1011 -111.1236 227° Southwest 337 388 20,200 -1,860 Descending Albuquerque Center
12:48 34.0353 -111.2072 226° Southwest 342 394 18,300 -1,560 Descending Albuquerque Center
12:50 33.8626 -111.4082 239° Southwest  Level FlightAware Approximate
12:51 33.9315 -111.3260 224° Southwest  Level FlightAware Approximate
12:51 33.8667 -111.4500 224° Southwest 279 321 14,000  Level Phoenix TRACON
12:52 33.8167 -111.5167 228° Southwest 287 330 13,500 -1,080 Descending Phoenix TRACON
12:53 33.7708 -111.6131 240° Southwest 285 328 11,700 -1,620 Descending Albuquerque Center
12:55 33.7311 -111.6903 238° Southwest 272 313 10,000 -1,260 Descending Albuquerque Center
12:56 33.6939 -111.7583 237° Southwest 243 280 9,200 -540 Descending Albuquerque Center
12:57 33.6594 -111.8214 237° Southwest 228 262 9,000 -120 Descending Albuquerque Center
12:58 33.6244 -111.8839 236° Southwest 224 258 9,000 -360 Level Albuquerque Center
12:59 33.5667 -112.0000 239° Southwest 223 257 8,100 -660 Descending Phoenix TRACON
13:01 33.5258 -112.0897 241° Southwest 224 258 7,000 -840 Descending Albuquerque Center
13:02 33.5256 -112.1661 270° West 228 262 6,100 -1,200 Descending Albuquerque Center
13:03 33.4783 -112.1939 206° Southwest 225 259 4,600 -1,140 Descending Albuquerque Center
13:04 33.4450 -112.1375 125° Southeast 210 242 3,800 -1,260 Descending Albuquerque Center
13:05 33.4403 -112.0756 95° East 156 180 2,000 -1,800 Descending Albuquerque Center